Flag Weather past 2 weeks in Sarnia, Ontario, Canada

Now
25 °F

Light snow. Mostly cloudy.


Feels Like: 16 °F
Forecast: 29 / 39 °F
Wind: 8 mph from South

Location: Sarnia Airport

Current Time: Nov 28, 2014 at 7:20:45 PM

Latest Report: Nov 28, 2014 at 6:04 PM


Visibility: 9 mi

Pressure: 30.21 "Hg

Humidity: 74%

Dew point: 18 °F

Location of SarniaLocation

Historic Weather in Sarnia — Graph

°F

Sarnia temperature yesterday

Maximum temperature yesterday: 32 °F (at 12:51 AM)
Minimum temperature yesterday: 25 °F (at 10:00 PM)
Average temperature yesterday: 30 °F

Past Weeks' High & Low Weather Summary

 TemperatureHumidityPressure
High57 °F (Nov 24, 2:00 PM)100% (Nov 16, 10:00 PM)30.48 "Hg (Nov 16, 10:00 PM)
Low10 °F (Nov 21, 7:00 AM)50% (Nov 21, 1:00 PM)29.05 "Hg (Nov 24, 5:00 AM)
Average30 °F75%30.00 "Hg
* Reported Nov 13 6:00 PM — Nov 28 6:04 PM, Sarnia, Weather by CustomWeather, © 2014

Note: Actual official high and low records may vary slightly from our data, if they occured in-between our weather recording intervals... More about our weather records

Advertising

Sarnia weather history for previous 24 hours

 ConditionsComfort  
Time TempWeatherWind HumidityBarometerVisibility
6:04 PM
Nov 28
25 °FLight snow. Mostly cloudy.8 mph74%30.21 "Hg9 mi
6:00 PM25 °FMostly cloudy.10 mph74%30.21 "Hg9 mi
5:00 PM25 °FMostly cloudy.7 mph63%30.22 "Hg9 mi
4:00 PM25 °FPartly sunny.8 mph63%30.22 "Hg9 mi
3:00 PM27 °FOvercast.9 mph54%30.24 "Hg9 mi
2:00 PM25 °FOvercast.9 mph59%30.25 "Hg9 mi
1:00 PM25 °FOvercast.6 mph54%30.27 "Hg9 mi
12:00 PM23 °FOvercast.7 mph54%30.29 "Hg9 mi
11:00 AM23 °FPartly sunny.9 mph50%30.33 "Hg9 mi
10:00 AM21 °FMostly cloudy.6 mph58%30.35 "Hg9 mi
9:00 AM19 °FPartly sunny.9 mph63%30.35 "Hg9 mi
8:00 AM19 °FMore clouds than sun.8 mph63%30.35 "Hg9 mi
7:00 AM19 °FMostly cloudy.9 mph63%30.36 "Hg9 mi
6:00 AM21 °FOvercast.12 mph58%30.35 "Hg9 mi
5:00 AM21 °FLight snow. Overcast.10 mph63%30.34 "Hg9 mi
4:00 AM21 °FLight snow. Overcast.13 mph63%30.33 "Hg9 mi
3:00 AM21 °FLight snow. Overcast.9 mph63%30.32 "Hg9 mi
2:00 AM21 °FOvercast.12 mph63%30.30 "Hg9 mi
1:00 AM23 °FOvercast.16 mph58%30.30 "Hg9 mi
12:00 AM23 °FMostly cloudy.14 mph63%30.30 "Hg9 mi
11:00 PM
Nov 27
25 °FMostly cloudy.17 mph59%30.29 "Hg9 mi
10:00 PM25 °FPartly cloudy.15 mph69%30.27 "Hg9 mi
9:46 PM27 °FMostly cloudy.14 mph64%30.27 "Hg9 mi
9:00 PM27 °FMostly cloudy.18 mph69%30.27 "Hg9 mi
8:59 PM27 °FMostly cloudy.17 mph69%30.27 "Hg9 mi
8:00 PM28 °FLight snow. Overcast.16 mph64%30.26 "Hg9 mi
7:00 PM28 °FOvercast.18 mph64%30.25 "Hg9 mi
Weather by CustomWeather, © 2014

See weather overviewHow to use our weather pages